FW9125 Weather Reports


Display with metric or nautical units.
time (UTC)temp
F
wind
direction
speed
MPH
gust
MPH
rain 1hr
in
rain 24hr
in
rain mn
in
humidity
%
barometer
mb
20260510075955 64 269 9.0 16.0 0.00 0.57 0.00 76 1012.2
20260510075237 64 309 11.0 18.0 0.00 0.57 0.00 77 1012.2
20260510074914 64 276 7.0 17.0 0.00 0.57 0.00 77 1012.2
20260510073831 64 284 9.0 18.0 0.00 0.57 0.00 77 1012.2
20260510073405 64 276 10.0 15.0 0.00 0.57 0.00 77 1012.3
20260510073127 63 273 9.0 15.0 0.00 0.57 0.00 78 1012.2
20260510072359 63 264 10.0 15.0 0.00 0.57 0.00 77 1012.2
20260510071835 63 271 11.0 15.0 0.00 0.57 0.00 77 1012.3
20260510071809 62 233 6.0 9.0 0.00 0.57 0.00 79 1012.3
20260510071433 63 240 9.0 14.0 0.00 0.57 0.00 77 1012.2
20260510071032 63 243 9.0 12.0 0.00 0.57 0.00 77 1012.3
20260510070601 62 269 6.0 12.0 0.00 0.57 0.00 78 1012.3
20260510065447 62 276 8.0 10.0 0.00 0.57 0.00 79 1012.2
20260510065405 62 266 5.0 10.0 0.00 0.57 0.00 79 1012.3
20260510065033 62 266 7.0 10.0 0.00 0.57 0.00 79 1012.2
20260510063929 62 271 6.0 8.0 0.00 0.57 0.00 79 1012.1
20260510063331 62 269 5.0 7.0 0.00 0.57 0.00 79 1012.2
20260510063106 62 271 4.0 9.0 0.00 0.57 0.00 79 1012.1
20260510063029 62 243 4.0 7.0 0.00 0.57 0.00 79 1012.1
20260510062043 61 270 4.0 7.0 0.00 0.57 0.00 80 1012.1
20260510061935 61 265 5.0 10.0 0.00 0.57 0.00 79 1012.1
20260510061540 61 290 6.0 10.0 0.00 0.57 0.00 79 1012.0
20260510061211 61 274 5.0 9.0 0.00 0.57 0.00 79 1012.1
20260510060532 61 277 5.0 9.0 0.00 0.57 0.00 79 1012.1
20260510055332 61 269 6.0 7.0 0.00 0.57 0.00 80 1012.1
20260510054905 61 297 4.0 7.0 0.00 0.57 0.00 81 1012.0
20260510054339 60 269 5.0 7.0 0.00 0.57 0.00 81 1012.0
20260510053859 60 265 5.0 7.0 0.00 0.57 0.00 81 1012.0
20260510053450 60 273 5.0 8.0 0.00 0.57 0.00 82 1012.0
20260510053146 60 245 6.0 9.0 0.00 0.57 0.00 84 1012.0
20260510053020 60 270 5.0 8.0 0.00 0.57 0.00 83 1011.9
20260510052006 59 265 9.0 15.0 0.00 0.58 0.00 86 1011.9
20260510051932 60 257 6.0 14.0 0.00 0.58 0.00 85 1012.0
20260510051602 59 266 9.0 15.0 0.00 0.58 0.00 86 1012.0
20260510050432 59 206 8.0 12.0 0.00 0.58 0.00 86 1011.9
20260510045831 60 220 7.0 11.0 0.00 0.58 0.00 85 1011.9
20260510045613 60 274 2.0 10.0 0.00 0.58 0.00 84 1011.8
20260510045534 60 257 7.0 10.0 0.00 0.58 0.00 86 1011.9
20260510044424 59 243 5.0 10.0 0.00 0.58 0.00 86 1011.9
20260510043831 59 239 3.0 6.0 0.00 0.58 0.00 85 1012.0
20260510043333 59 247 4.0 6.0 0.00 0.58 0.00 85 1011.9
20260510042832 59 263 2.0 5.0 0.00 0.58 0.00 85 1011.9
20260510042412 59 248 3.0 5.0 0.00 0.58 0.00 84 1011.9
20260510042128 59 263 3.0 8.0 0.00 0.58 0.00 84 1012.0
20260510041407 60 274 5.0 8.0 0.00 0.58 0.00 83 1012.0
20260510040940 60 290 4.0 7.0 0.00 0.58 0.00 83 1011.9
20260510040935 60 285 4.0 7.0 0.00 0.58 0.00 83 1012.0
20260510040910 59 243 5.0 8.0 0.00 0.58 0.00 84 1012.0
20260510040530 59 221 4.0 7.0 0.00 0.58 0.00 84 1012.0
20260510040118 60 259 4.0 6.0 0.00 0.58 0.00 83 1012.0
20260510034356 60 291 4.0 7.0 0.00 0.58 0.00 84 1012.0
20260510033952 60 288 5.0 8.0 0.00 0.58 0.00 84 1011.9
20260510033331 60 285 5.0 8.0 0.00 0.58 0.00 84 1012.0
20260510032942 60 281 4.0 7.0 0.00 0.58 0.00 84 1012.0
20260510032332 59 252 4.0 8.0 0.00 0.58 0.00 84 1012.0
20260510032231 59 300 4.0 9.0 0.00 0.58 0.00 84 1012.1
20260510031339 60 295 6.0 9.0 0.00 0.58 0.00 84 1012.1
20260510031019 59 312 6.0 8.0 0.00 0.58 0.00 85 1012.3
20260510030950 60 316 6.0 11.0 0.00 0.58 0.00 84 1012.0
20260510030612 59 302 6.0 11.0 0.00 0.58 0.00 84 1012.1
20260510030132 59 332 5.0 9.0 0.00 0.58 0.00 84 1012.1
20260510025501 59 290 6.0 8.0 0.00 0.58 0.00 84 1012.2
20260510024623 59 305 4.0 7.0 0.00 0.58 0.00 85 1012.3
20260510023915 59 300 2.0 7.0 0.00 0.58 0.00 85 1012.4
20260510023348 59 307 3.0 7.0 0.00 0.58 0.00 85 1012.4
20260510022911 59 321 3.0 9.0 0.00 0.58 0.00 85 1012.4
20260510022331 60 306 6.0 9.0 0.00 0.58 0.00 85 1012.4
20260510021904 59 291 5.0 7.0 0.00 0.58 0.00 85 1012.4
20260510021451 59 322 5.0 7.0 0.00 0.58 0.00 85 1012.4
20260510020857 59 271 5.0 7.0 0.00 0.58 0.00 85 1012.2
20260510020447 59 300 4.0 6.0 0.00 0.58 0.00 85 1012.2
20260510015832 59 285 4.0 6.0 0.00 0.58 0.00 86 1012.2
20260510015435 58 274 2.0 5.0 0.00 0.58 0.00 88 1012.2
20260510014831 58 263 1.0 3.0 0.00 0.58 0.00 88 1012.3
20260510014430 59 288 2.0 3.0 0.00 0.58 0.00 88 1012.3
20260510013840 59 309 0.0 1.0 0.00 0.58 0.00 87 1012.1
20260510013413 59 309 0.0 2.0 0.00 0.58 0.00 88 1012.1
20260510012830 59 309 0.0 2.0 0.00 0.58 0.00 87 1012.2
20260510012327 59 335 2.0 2.0 0.00 0.58 0.00 88 1012.1
20260510011823 59 75 0.0 0.0 0.00 0.58 0.00 88 1012.2
20260510011405 59 75 0.0 0.0 0.00 0.58 0.00 88 1012.2
20260510010816 59 75 0.0 0.0 0.00 0.58 0.00 88 1012.2
20260510010408 59 75 0.0 0.0 0.00 0.58 0.00 88 1012.3
20260510005813 59 75 0.0 1.0 0.00 0.58 0.00 88 1012.3
20260510005350 59 75 0.0 1.0 0.00 0.58 0.00 87 1012.3
20260510004812 59 73 0.0 0.0 0.00 0.58 0.00 87 1012.5
20260510004342 60 73 0.0 4.0 0.00 0.58 0.00 87 1012.5
20260510003931 60 73 2.0 4.0 0.00 0.58 0.00 87 1012.5
20260510003443 60 309 2.0 8.0 0.00 0.58 0.00 87 1012.9
20260510003357 60 193 1.0 3.0 0.00 0.58 0.00 87 1012.6
20260510002954 59 262 1.0 4.0 0.00 0.58 0.00 87 1012.7
20260510002502 60 116 2.0 4.0 0.00 0.58 0.00 87 1012.6
20260510002013 60 292 0.0 5.0 0.00 0.58 0.00 87 1012.8
20260510001211 60 338 4.0 8.0 0.00 0.58 0.00 87 1013.0
20260510000525 60 321 5.0 7.0 0.00 0.58 0.00 88 1013.2
20260510000334 60 304 5.0 8.0 0.00 0.58 0.00 88 1012.9
20260509235941 60 331 5.0 8.0 0.00 0.58 0.00 88 1012.9
20260509235349 60 313 6.0 8.0 0.00 0.58 0.00 88 1013.0
20260509234743 60 300 2.0 6.0 0.00 0.58 0.00 87 1013.2
20260509234739 60 326 5.0 9.0 0.00 0.58 0.00 88 1013.2
20260509234722 60 340 5.0 8.0 0.00 0.58 0.00 87 1013.3
20260509234718 60 302 4.0 6.0 0.00 0.58 0.00 87 1013.2
20260509234607 60 311 5.0 8.0 0.00 0.58 0.00 88 1013.2
20260509233503 60 355 4.0 7.0 0.00 0.58 0.00 87 1013.2
20260509233336 60 339 6.0 9.0 0.00 0.58 0.00 88 1013.2
20260509232931 60 321 5.0 9.0 0.00 0.58 0.00 87 1013.3
20260509232439 60 321 6.0 9.0 0.00 0.58 0.00 87 1013.3
20260509225936 60 321 4.0 9.0 0.00 0.58 0.00 88 1013.3
20260509225911 60 321 4.0 7.0 0.00 0.58 0.00 88 1013.2
20260509225512 60 336 5.0 8.0 0.00 0.58 0.00 88 1013.2
20260509224417 60 311 4.0 9.0 0.00 0.58 0.00 88 1013.3
20260509223812 60 304 4.0 6.0 0.00 0.58 0.00 88 1013.2
20260509223412 60 334 4.0 8.0 0.00 0.58 0.00 88 1013.2
20260509222858 60 346 4.0 8.0 0.00 0.58 0.00 88 1013.3
20260509222348 60 305 5.0 9.0 0.00 0.58 0.00 88 1013.4
20260509222214 60 309 4.0 5.0 0.00 0.58 0.00 88 1013.3
20260509221848 60 319 5.0 9.0 0.00 0.58 0.00 88 1013.3
20260509221141 60 312 3.0 5.0 0.00 0.58 0.00 88 1013.4
20260509220811 60 295 3.0 5.0 0.00 0.00 0.00 88 1013.4
20260509215821 60 325 3.0 6.0 0.00 0.58 0.58 88 1013.3
20260509215342 60 311 3.0 6.0 0.00 0.58 0.58 87 1013.3
20260509214806 60 328 3.0 5.0 0.00 0.58 0.58 87 1013.3
20260509214338 60 294 4.0 5.0 0.00 0.58 0.58 88 1013.3
20260509213804 59 307 2.0 4.0 0.00 0.58 0.58 89 1013.4
20260509213407 59 309 2.0 3.0 0.00 0.58 0.58 89 1013.3
20260509213038 59 311 2.0 4.0 0.00 0.58 0.58 89 1013.4
20260509212439 59 343 1.0 3.0 0.00 0.58 0.58 90 1013.3
20260509212435 59 333 2.0 3.0 0.00 0.58 0.58 90 1013.4
20260509212348 59 313 2.0 4.0 0.00 0.58 0.58 89 1013.3
20260509212018 59 355 2.0 3.0 0.00 0.58 0.58 90 1013.2
20260509210422 59 348 0.0 0.0 0.00 0.58 0.58 91 1013.4
20260509205307 59 53 0.0 0.0 0.00 0.58 0.58 91 1013.2
20260509204915 59 53 0.0 0.0 0.00 0.58 0.58 91 1013.1
20260509204858 59 53 0.0 0.0 0.00 0.58 0.58 91 1013.1
20260509203759 59 53 0.0 0.0 0.00 0.58 0.58 91 1012.9
20260509203658 59 53 0.0 0.0 0.00 0.58 0.58 91 1012.8
20260509203411 59 53 0.0 0.0 0.00 0.58 0.58 91 1012.8
20260509202420 59 53 0.0 0.0 0.00 0.58 0.58 92 1012.7
20260509201848 59 53 0.0 0.0 0.00 0.58 0.58 92 1012.6
20260509201836 59 53 0.0 0.0 0.00 0.58 0.58 92 1012.5
20260509200817 59 53 0.0 1.0 0.00 0.58 0.58 92 1012.5
20260509200258 59 53 0.0 3.0 0.00 0.58 0.58 92 1012.3
20260509200146 59 27 1.0 5.0 0.00 0.58 0.58 92 1012.3
20260509200142 59 13 4.0 5.0 0.00 0.58 0.58 91 1012.1
20260509195930 59 53 2.0 3.0 0.00 0.58 0.58 92 1012.2
20260509195600 59 39 2.0 3.0 0.00 0.58 0.58 92 1012.3
20260509194458 59 25 3.0 5.0 0.00 0.58 0.58 91 1012.2
20260509193344 59 32 2.0 3.0 0.00 0.58 0.58 92 1012.0
20260509192758 59 19 1.0 2.0 0.00 0.58 0.58 93 1012.0
20260509192637 59 74 1.0 2.0 0.00 0.58 0.58 93 1011.9
20260509191759 59 78 0.0 1.0 0.00 0.58 0.58 94 1011.9
20260509191419 59 48 1.0 4.0 0.01 0.58 0.58 93 1011.6
20260509191350 59 78 0.0 4.0 0.01 0.58 0.58 93 1011.7
20260509190259 59 46 3.0 5.0 0.01 0.58 0.58 93 1011.4
20260509185914 58 52 3.0 7.0 0.01 0.57 0.58 93 1011.3
20260509185316 58 53 3.0 7.0 0.01 0.57 0.58 94 1011.3
20260509184907 58 7 3.0 6.0 0.01 0.57 0.58 93 1011.1
20260509184312 58 45 4.0 6.0 0.01 0.57 0.58 94 1011.0
20260509183809 58 44 2.0 4.0 0.01 0.57 0.58 94 1010.9
20260509183305 58 59 2.0 4.0 0.01 0.57 0.58 95 1010.9
20260509182758 58 27 1.0 4.0 0.01 0.57 0.58 94 1010.9
20260509182306 59 259 0.0 0.0 0.01 0.57 0.58 95 1010.9
20260509181844 59 259 0.0 0.0 0.01 0.57 0.58 95 1010.8
20260509181300 59 259 0.0 1.0 0.00 0.57 0.57 95 1010.8
20260509180843 59 259 0.0 2.0 0.01 0.57 0.57 95 1010.8
20260509180258 59 257 2.0 4.0 0.02 0.57 0.57 95 1010.6
20260509175836 59 291 2.0 4.0 0.02 0.56 0.57 95 1010.6
20260509175419 59 269 2.0 4.0 0.03 0.56 0.57 95 1010.6
20260509174855 59 306 0.0 3.0 0.06 0.56 0.57 94 1010.5
20260509174411 59 27 1.0 6.0 0.07 0.56 0.57 94 1010.5
20260509173819 58 30 3.0 14.0 0.09 0.56 0.57 93 1010.4
20260509173405 58 63 10.0 17.0 0.12 0.56 0.57 93 1010.2
20260509172757 58 46 9.0 17.0 0.14 0.56 0.57 93 1010.1
20260509172359 58 42 10.0 13.0 0.17 0.56 0.57 94 1010.2
20260509171810 58 53 8.0 13.0 0.20 0.56 0.57 94 1010.5
20260509171354 58 60 7.0 12.0 0.22 0.56 0.57 94 1010.5
20260509170803 58 69 8.0 12.0 0.24 0.56 0.57 94 1010.5
20260509170258 58 52 8.0 11.0 0.27 0.56 0.56 94 1010.5
20260509165757 58 62 8.0 11.0 0.30 0.27 0.55 94 1010.9
20260509165257 58 51 7.0 12.0 0.32 0.27 0.54 94 1011.2
20260509164820 58 51 8.0 12.0 0.32 0.27 0.52 94 1011.6
20260509164339 58 56 9.0 12.0 0.33 0.27 0.50 94 1011.9
20260509163756 58 54 5.0 8.0 0.31 0.27 0.47 94 1012.1
20260509163335 58 53 3.0 5.0 0.30 0.27 0.45 94 1012.3
20260509162756 59 46 3.0 4.0 0.28 0.27 0.43 93 1012.4
20260509162332 59 37 3.0 4.0 0.27 0.27 0.40 93 1012.6
20260509161919 59 60 2.0 3.0 0.24 0.27 0.38 93 1012.8
20260509161524 59 55 2.0 6.0 0.20 0.27 0.31 91 1013.1
20260509161451 59 72 2.0 4.0 0.22 0.27 0.35 92 1013.1
20260509160341 59 55 5.0 6.0 0.17 0.27 0.28 91 1013.1
20260509155908 60 44 4.0 5.0 0.14 0.12 0.24 89 1013.2
20260509155258 60 60 1.0 6.0 0.12 0.12 0.21 88 1013.4
20260509154909 60 109 3.0 8.0 0.11 0.12 0.20 88 1013.5
20260509154308 61 103 4.0 11.0 0.11 0.12 0.17 87 1013.2
20260509153857 61 92 5.0 15.0 0.11 0.12 0.16 85 1012.6
20260509153305 61 87 9.0 15.0 0.11 0.12 0.15 85 1012.1
20260509152834 61 82 13.0 24.0 0.09 0.12 0.13 90 1011.2
20260509152818 61 77 9.0 15.0 0.10 0.12 0.15 86 1012.1
20260509152400 61 96 10.0 17.0 0.09 0.12 0.14 86 1012.1
20260509152028 61 74 13.0 18.0 0.09 0.12 0.13 88 1011.8
20260509150840 61 49 19.0 26.0 0.10 0.12 0.13 91 1010.3
20260509150307 61 72 19.0 26.0 0.10 0.12 0.12 91 1009.4
20260509145840 61 69 18.0 23.0 0.10 0.02 0.11 91 1009.2
20260509145257 61 79 13.0 21.0 0.09 0.02 0.10 91 1009.8
20260509144835 61 62 16.0 22.0 0.08 0.02 0.08 90 1010.1
20260509144257 62 56 16.0 22.0 0.06 0.02 0.06 89 1010.2
20260509144128 62 62 16.0 21.0 0.05 0.02 0.06 89 1010.6
20260509143418 62 68 15.0 19.0 0.04 0.02 0.05 88 1011.0
20260509142824 62 76 14.0 21.0 0.04 0.02 0.05 87 1011.5
20260509142412 62 55 16.0 21.0 0.04 0.02 0.05 86 1012.2
20260509141757 63 86 12.0 20.0 0.03 0.02 0.04 86 1012.7
20260509141718 64 91 13.0 18.0 0.02 0.02 0.02 84 1013.2
20260509141541 63 105 13.0 19.0 0.03 0.02 0.03 86 1013.0
20260509140400 64 105 11.0 17.0 0.01 0.02 0.02 83 1013.2
20260509135805 65 86 11.0 15.0 0.00 0.01 0.01 82 1013.1
20260509135403 65 91 10.0 17.0 0.00 0.01 0.01 80 1013.2
20260509135347 65 103 8.0 15.0 0.00 0.01 0.01 81 1013.2
20260509134257 65 103 11.0 17.0 0.00 0.01 0.01 78 1013.1
20260509133756 65 84 9.0 15.0 0.00 0.01 0.01 77 1012.9
20260509133343 65 80 6.0 10.0 0.00 0.01 0.01 76 1012.8
20260509132757 65 70 2.0 14.0 0.00 0.01 0.01 76 1012.7
20260509132339 65 77 5.0 16.0 0.00 0.01 0.01 77 1012.3
20260509131757 65 38 12.0 23.0 0.00 0.01 0.01 78 1012.0
20260509131341 65 70 16.0 23.0 0.00 0.01 0.01 78 1011.6
20260509130757 65 58 15.0 23.0 0.00 0.01 0.01 79 1011.3
20260509130542 65 63 16.0 22.0 0.00 0.01 0.01 82 1011.8
20260509130442 65 61 17.0 22.0 0.00 0.01 0.01 80 1011.3
20260509125909 65 71 16.0 22.0 0.00 0.01 0.01 82 1011.5
20260509124916 65 80 13.0 22.0 0.00 0.01 0.01 80 1011.8
20260509124257 65 70 14.0 22.0 0.00 0.01 0.01 78 1011.7
20260509123910 65 67 13.0 22.0 0.00 0.01 0.01 76 1011.8
20260509123312 65 63 15.0 20.0 0.00 0.01 0.01 76 1011.8
20260509122905 65 72 13.0 19.0 0.00 0.01 0.01 79 1011.9
20260509122714 65 65 15.0 18.0 0.00 0.01 0.01 81 1012.3
20260509122345 65 45 12.0 18.0 0.00 0.01 0.01 81 1012.1
20260509121310 65 39 13.0 18.0 0.00 0.01 0.01 81 1012.6
20260509120757 65 79 13.0 18.0 0.00 0.01 0.01 81 1013.0
20260509120316 65 68 15.0 18.0 0.00 0.01 0.01 80 1013.1
20260509115847 65 87 14.0 17.0 0.00 0.01 0.01 79 1013.2
20260509115255 65 63 13.0 19.0 0.00 0.01 0.01 80 1013.3
20260509114842 65 51 13.0 19.0 0.00 0.01 0.01 81 1013.5
20260509114333 65 70 11.0 20.0 0.00 0.01 0.01 80 1013.8
20260509114313 65 79 12.0 17.0 0.00 0.01 0.01 80 1013.7
20260509113255 65 75 15.0 21.0 0.00 0.01 0.01 81 1013.8
20260509112834 65 67 12.0 21.0 0.00 0.01 0.01 81 1013.8
20260509112255 65 99 15.0 20.0 0.00 0.01 0.01 81 1013.9
20260509111834 65 86 12.0 17.0 0.00 0.01 0.01 81 1014.0
20260509111255 65 111 11.0 19.0 0.00 0.01 0.01 82 1014.0
20260509110756 65 74 10.0 22.0 0.00 0.01 0.01 83 1013.8
20260509110431 65 117 17.0 22.0 0.00 0.01 0.01 82 1013.8
20260509105821 65 76 17.0 21.0 0.00 0.01 0.01 83 1013.7
20260509105410 65 70 15.0 19.0 0.00 0.01 0.01 83 1013.8
20260509104815 65 103 12.0 19.0 0.00 0.01 0.01 84 1013.8
20260509104309 65 89 15.0 19.0 0.00 0.01 0.01 83 1013.8
20260509103839 65 94 13.0 18.0 0.00 0.01 0.01 83 1013.8
20260509103255 65 84 12.0 17.0 0.00 0.01 0.01 83 1014.0
20260509102802 66 76 11.0 18.0 0.00 0.01 0.01 82 1014.0
20260509102352 65 89 13.0 18.0 0.00 0.01 0.01 82 1014.0
20260509102051 65 116 14.0 18.0 0.00 0.01 0.01 81 1014.0
20260509101346 65 96 12.0 17.0 0.00 0.01 0.01 81 1013.9
20260509100849 65 89 14.0 21.0 0.00 0.01 0.01 83 1013.8
20260509100828 65 84 12.0 20.0 0.00 0.01 0.01 82 1013.7
20260509100538 65 81 15.0 21.0 0.00 0.01 0.01 83 1013.8
20260509095554 65 94 15.0 21.0 0.00 0.01 0.01 82 1013.7
20260509095456 65 92 16.0 21.0 0.00 0.01 0.01 82 1013.8
20260509094336 65 77 15.0 19.0 0.00 0.01 0.01 80 1013.6
20260509093805 66 87 13.0 20.0 0.00 0.01 0.01 81 1013.5
20260509093256 65 91 15.0 20.0 0.00 0.01 0.01 80 1013.3
20260509093146 66 113 14.0 20.0 0.00 0.01 0.01 82 1013.4
20260509092858 66 97 12.0 19.0 0.00 0.01 0.01 81 1013.4
20260509092038 65 97 14.0 19.0 0.00 0.01 0.01 81 1013.3
20260509091958 66 65 13.0 20.0 0.00 0.01 0.01 81 1013.3
20260509090756 65 75 13.0 19.0 0.00 0.01 0.01 81 1013.2
20260509090330 65 75 11.0 19.0 0.00 0.01 0.01 82 1013.2
20260509085902 65 70 15.0 19.0 0.00 0.01 0.01 81 1013.1
20260509085307 65 65 14.0 21.0 0.00 0.01 0.01 81 1013.0
20260509084856 65 56 15.0 21.0 0.00 0.01 0.01 82 1012.9
20260509084418 65 62 13.0 20.0 0.00 0.01 0.01 82 1013.0
20260509084354 65 75 14.0 21.0 0.00 0.01 0.01 83 1012.9
20260509084023 65 53 13.0 21.0 0.00 0.01 0.01 83 1012.9
20260509083225 65 63 15.0 21.0 0.00 0.01 0.01 84 1012.9
20260509082953 65 84 12.0 20.0 0.00 0.01 0.01 83 1013.0
20260509081843 65 108 14.0 21.0 0.00 0.01 0.01 83 1013.0
20260509081256 65 89 13.0 19.0 0.00 0.01 0.01 84 1013.0
20260509080838 65 77 11.0 20.0 0.00 0.01 0.01 83 1012.9
20260509080328 65 88 8.0 20.0 0.00 0.01 0.01 85 1012.9